Regional Weather Roundup
Issued by NWS Northern Indiana

Home | Current Version | Previous Version | Text Only | Print | Product List | Glossary Off
Versions: 1 2 3 4 5 6 7 8 9 10 11 12 13 14 15 16 17 18 19 20 21 22 23 24 25 26 27 28 29 30 31 32 33 34 35 36 37 38 39 40 41 42 43 44 45 46 47 48 49 50

000
ASUS43 KIWX 040600
RWRIWX

KIWX WEATHER ROUNDUP
NATIONAL WEATHER SERVICE NORTHERN INDIANA
200 AM EDT TUE AUG 04 2015

NOTE: "FAIR" INDICATES FEW OR NO CLOUDS BELOW 12,000 FEET WITH NO
SIGNIFICANT WEATHER AND/OR OBSTRUCTIONS TO VISIBILITY.

* THESE STATIONS ARE NOT UNDER NWS QUALITY CONTROL. THEY ALSO MAY NOT
  REPORT WEATHER SUCH AS PRECIPITATION OR FOG.

INZ001>027-040700-
NORTHERN INDIANA

CITY           SKY/WX    TMP DP  RH WIND       PRES   REMARKS
SOUTH BEND     CLEAR     62  55  77 CALM      29.92S
6HR MIN TEMP:  62; 6HR MAX TEMP:  76;

GOSHEN         CLEAR     60  55  83 S3        29.91S
6HR MIN TEMP:  60; 6HR MAX TEMP:  73;

FORT WAYNE     CLEAR     60  56  86 W3        29.93S
6HR MIN TEMP:  60; 6HR MAX TEMP:  76;

PERU/GRISSOM   CLEAR     60  58  92 SW5       29.93S
6HR MIN TEMP:  60; 6HR MAX TEMP:  80;


$$
INZ028>050-040700-
CENTRAL INDIANA

CITY           SKY/WX    TMP DP  RH WIND       PRES   REMARKS
LAFAYETTE      CLEAR     59  57  93 CALM      29.94S
6HR MIN TEMP:  59; 6HR MAX TEMP:  78;

KOKOMO*        CLEAR     61  55  82 SW3       29.95R
6HR MIN TEMP:  61; 6HR MAX TEMP:  81;

MUNCIE*        CLEAR     62  59  90 S3        29.95R
6HR MIN TEMP:  61; 6HR MAX TEMP:  77;

INDIANAPOLIS   CLEAR     69  58  67 N6        29.93S
6HR MIN TEMP:  69; 6HR MAX TEMP:  83;


$$
MIZ043>046-050>051-056>058-064>065-071>073-077>080-040700-
SOUTHWEST LOWER MICHIGAN

CITY           SKY/WX    TMP DP  RH WIND       PRES   REMARKS
BATTLE CREEK     N/A    N/A N/A N/A MISG      29.90S
BENTON HARBOR  CLEAR     60  57  89 CALM      29.89F
6HR MIN TEMP:  60; 6HR MAX TEMP:  74;

COLDWATER*     CLEAR     57  53  85 CALM      29.91S
6HR MIN TEMP:  57; 6HR MAX TEMP:  72;

HILLSDALE*     CLEAR     59  54  83 CALM      29.91S
6HR MIN TEMP:  58; 6HR MAX TEMP:  72;

HOLLAND        PTCLDY    62  55  77 CALM      29.89S
6HR MIN TEMP:  62; 6HR MAX TEMP:  73;

GRAND RAPIDS   PTCLDY    64  52  64 SW6       29.88S
6HR MIN TEMP:  64; 6HR MAX TEMP:  74;

KALAMAZOO      PTCLDY    62  53  72 SW5       29.90S
6HR MIN TEMP:  60; 6HR MAX TEMP:  74;

STURGIS*       CLEAR     57  55  94 CALM      29.91S
THREE RIVERS*  FAIR      59  55  89 SW3       29.90F
6HR MIN TEMP:  58; 6HR MAX TEMP:  73;


$$
OHZ001>008-015>018-024>025-040700-
NORTHWEST OHIO

CITY           SKY/WX    TMP DP  RH WIND       PRES   REMARKS
DEFIANCE       CLEAR     60  54  80 CALM      29.92R
6HR MIN TEMP:  59; 6HR MAX TEMP:  76;

FINDLAY        CLEAR     59  54  83 S3        29.91R
6HR MIN TEMP:  59; 6HR MAX TEMP:  79;

TOLEDO EXPRESS CLEAR     64  51  62 W7        29.89S
6HR MIN TEMP:  63; 6HR MAX TEMP:  76;

TOLEDO METCALF CLEAR     64  52  64 W5        29.90R
6HR MIN TEMP:  63; 6HR MAX TEMP:  78;

LIMA           PTCLDY    60  55  83 CALM      29.93S
6HR MIN TEMP:  59; 6HR MAX TEMP:  78;


$$
AND FOR LAKE MICHIGAN COASTAL AND OPEN LAKE BUOY OBSERVATIONS

STATION/POSITION TEMP    WIND        PRES    VSBY  WAVE
                 AIR SEA DIR/SP/G                  HT/PER
                 (F)     (DEG/KT/KT) (MB)    (MI)  (FT/S)
CALUMET HARBOR    72     240/  3/  6   N/A
MICHIGAN CITY     70     170/ 11/ 12   N/A
BURNS HARBOR      70     200/  6/  7 1013.2S
SAINT JOSEPH      74     220/ 11/ 14 1013.2R
4 MI NW BRIDGMAN  73 74  260/ 12/ 14   N/A           1
MICHIGAN CITY     72 74  220/ 10/ 12   N/A           1/ 3

$$
&&


USA.gov is the U.S. government's official web portal to all federal, state and local government web resources and services.